This demonstration page uses our WeatherBlox Daily Observations layout. Learn more.

Left ArrowRight Arrow

38.88101, -77.10428

Hourly Observations for February 16, 2021

Temp ( °F °C ) Dew Point ( °F °C ) Humidity (%) Winds ( mph kmh ) Pressure ( in mb ) Visibility ( mi km ) Precip ( " mm )
12:22 am 00:22 Cloudy with Rain 36 2.2 35 1.7 97 97 NNE 3 6 29.86 1011 3 5 0.14 3.56
12:52 am 00:52 Cloudy 36 2.2 35 1.7 97 97 ENE 8 13 29.80 1009 10 16 0.17 4.32
1:08 am 01:08 Cloudy with Light Rain 37 2.8 35 1.7 93 93 N 6 9 29.80 1009 5 8 0.01 0.25
1:11 am 01:11 Cloudy with Rain 36 2.2 35 1.7 97 97 NNE 7 11 29.79 1009 3 4 0.02 0.51
1:15 am 01:15 Cloudy with Light Rain 36 2.2 35 1.7 97 97 N 5 7 29.80 1009 3 5 0.05 1.27
1:52 am 01:52 Cloudy with Light Rain 37 2.8 35 1.7 93 93 NNE 6 9 29.74 1007 8 13 0.10 2.54
2:38 am 02:38 Cloudy with Heavy Rain 37 2.8 35 1.7 93 93 NNE 6 9 29.69 1006 2 2 0.05 1.27
2:52 am 02:52 Cloudy with Heavy Rain 36 2.2 35 1.7 97 97 VRB 3 6 29.69 1006 2 2 0.17 4.32
2:55 am 02:55 Cloudy with Light Rain 36 2.2 35 1.7 97 97 NNW 5 7 29.70 1006 7 11 0.00 0.00
3:26 am 03:26 Cloudy 37 2.8 36 2.2 96 96 WNW 8 13 29.70 1006 7 11 0.01 0.25
3:52 am 03:52 Cloudy with Drizzle 37 2.8 36 2.2 96 96 NW 9 15 29.68 1005 4 6 0.03 0.76
4:11 am 04:11 Cloudy with Light Rain 37 2.8 35 1.7 93 93 NW 8 13 29.67 1005 3 5 0.01 0.25
4:52 am 04:52 Cloudy with Drizzle 36 2.2 35 1.7 97 97 N 5 7 29.65 1004 4 6 0.02 0.51
5:12 am 05:12 Cloudy with Drizzle 37 2.8 35 1.7 93 93 NNW 6 9 29.67 1005 4 6 0.00 0.00
5:17 am 05:17 Cloudy 37 2.8 35 1.7 93 93 NNW 6 9 29.67 1005 8 13 0.00 0.00
5:52 am 05:52 Cloudy with Drizzle 37 2.8 34 1.1 89 89 W 5 7 29.66 1004 6 10 0.00 0.00
6:12 am 06:12 Cloudy 37 2.8 35 1.7 93 93 W 3 6 29.66 1004 10 16 0.00 0.00
6:52 am 06:52 Cloudy 37 2.8 35 1.7 93 93 Calm 29.65 1004 10 16 0.00 0.00
7:33 am 07:33 Cloudy 38 3.3 35 1.7 89 89 NE 3 6 29.64 1004 10 16 0.00 0.00
7:52 am 07:52 Cloudy 38 3.3 35 1.7 89 89 Calm 29.65 1004 10 16 0.00 0.00
8:31 am 08:31 Cloudy 38 3.3 36 2.2 93 93 S 5 7 29.69 1006 9 14 0.00 0.00
8:52 am 08:52 Cloudy 39 3.9 36 2.2 89 89 S 7 11 29.70 1006 9 14 0.00 0.00
9:00 am 09:00 Cloudy 39 3.9 37 2.8 93 93 S 5 7 29.70 1006 8 13 0.00 0.00
9:52 am 09:52 Cloudy 40 4.4 37 2.8 89 89 SSW 3 6 29.70 1006 10 16 0.00 0.00
10:09 am 10:09 Cloudy 40 4.4 38 3.3 93 93 SSE 5 7 29.70 1006 10 16 0.00 0.00
10:52 am 10:52 Cloudy 41 5 38 3.3 89 89 S 6 9 29.68 1005 10 16 0.00 0.00
11:52 am 11:52 Cloudy 43 6.1 39 3.9 86 86 W 7 11 29.71 1006 10 16 0.00 0.00
12:13 pm 12:13 Cloudy 43 6.1 39 3.9 86 86 WSW 8 13 29.72 1006 10 16 0.00 0.00
12:52 pm 12:52 Cloudy 43 6.1 39 3.9 86 86 SSW 5 7 29.70 1006 10 16 0.00 0.00
1:52 pm 13:52 Cloudy 42 5.6 39 3.9 89 89 S 9 15 29.72 1006 10 16 0.00 0.00
2:19 pm 14:19 Cloudy 44 6.7 39 3.9 83 83 WSW 10 17 29.75 1008 10 16 0.00 0.00
2:52 pm 14:52 Cloudy 44 6.7 39 3.9 83 83 WSW 12 19 29.76 1008 10 16 0.00 0.00
3:52 pm 15:52 Cloudy 44 6.7 39 3.9 83 83 VRB 6 9 29.79 1009 10 16 0.00 0.00
4:52 pm 16:52 Cloudy 44 6.7 29 -1.7 55 55 NW 20 31 29.85 1011 10 16 0.00 0.00
5:52 pm 17:52 Cloudy 39 3.9 21 -6.1 48 48 NW 22 35 29.92 1013 10 16 0.00 0.00
6:52 pm 18:52 Cloudy 36 2.2 19 -7.2 50 50 NW 12 19 29.99 1016 10 16 0.00 0.00
7:52 pm 19:52 Mostly Cloudy 34 1.1 17 -8.3 50 50 NW 21 33 30.04 1017 10 16 0.00 0.00
8:52 pm 20:52 Partly Cloudy 32 0 15 -9.4 50 50 NW 12 19 30.08 1019 10 16 0.00 0.00
9:52 pm 21:52 Mostly Clear 31 -0.6 15 -9.4 52 52 NW 16 26 30.13 1020 10 16 0.00 0.00
10:52 pm 22:52 Mostly Cloudy 30 -1.1 14 -10 51 51 NW 13 20 30.16 1021 10 16 0.00 0.00
11:52 pm 23:52 Mostly Cloudy 29 -1.7 14 -10 54 54 NNW 16 26 30.19 1022 10 16 0.00 0.00

Powered by AerisWeather